Tracking 30995 objects as of 7-Jul-2025
HD Live streaming from Space Station
objects crossing your sky now

USA 325

Track USA 325 now!


NORAD ID: 51281
Int'l Code: 2022-006B
Perigee: 35,760.1 km
Apogee: 35,762.5 km
Inclination: 0.0 °
Period: 1,434.4 minutes
Semi major axis: 42132 km
RCS: Unknown
Launch date: January 21, 2022
Source: United States (US)
Launch site: AIR FORCE EASTERN TEST RANGE (AFETR)
Your satellite tracking list
FENGYUN 1C DEB
Track 1 satellite(s)




NASA's NSSDC Master Catalog

Two Line Element Set (TLE):
1 51281U 22006B   25163.69630973  .00000173  00000-0  00000+0 0  9997
2 51281   0.0168 304.8954 0000282 212.4123  24.9205  1.00387611 12422
Source of the keplerian elements: McCants